Tracking 20475 objects as of 27-Feb-2020
HD Live streaming from Space Station
objects crossing your sky now

COSMOS 2539

Track COSMOS 2539 now!


NORAD ID: 44457
Int'l Code: 2019-048A
Perigee: 35,791.8 km
Apogee: 35,796.2 km
Inclination: 0.0 °
Period: 1,436.1 minutes
Semi major axis: 42165 km
RCS: Unknown
Launch date: August 5, 2019
Source: Commonwealth of Independent States (former USSR) (CIS)
Launch site: TYURATAM MISSILE AND SPACE COMPLEX (TTMTR)
aabbcc
Your satellite tracking list
Your tracking list is empty




NASA's NSSDC Master Catalog

Two Line Element Set (TLE):
1 44457U 19048A   20058.40119061  .00000077  00000-0  00000+0 0  9996
2 44457   0.0130 137.8000 0000525 341.6795 193.6148  1.00270773  2142
Source of the keplerian elements: AFSPC